Location: Santa Fe
(35.6870°N, 105.9370°W)
Time: 12:04:48
(UTC-06:00)

Amateur Radio Satellites - All Passes

Search period start: 05 May 2016 11:34
Search period end: 06 May 2016 11:34
Location: Santa Fe, 35.6870°N, 105.9370°W

Satellite Date Start Highest point End Downlink Frequencies (MHz)
Time Altitude Azimuth
JAS-2 05 May 11:36:39 11:38:06 11° 54° (NE) 11:39:34 435.910
VELOX 1 05 May 11:44:44 11:47:39 17° 94° (E) 11:50:33 145.980
HUMSAT D 05 May 11:54:28 11:58:15 37° 287° (WNW) 12:02:01 437.325/437.525
DELFI C3 05 May 11:59:08 12:01:18 14° 292° (WNW) 12:03:27 145.870
AO-85 05 May 12:00:47 12:06:08 63° 116° (ESE) 12:11:32 145.980
DUCHIFAT 1 05 May 12:09:57 12:14:08 56° 260° (W) 12:18:20 145.980
QB50P2 05 May 12:14:38 12:18:41 41° 261° (W) 12:22:47 145.880/145.840
AISAT 05 May 12:16:11 12:20:26 41° 99° (E) 12:24:37 437.250
POLYITAN 1 05 May 12:16:51 12:20:54 41° 261° (W) 12:24:58 437.675
POPSAT HIP 1 05 May 12:18:39 12:22:41 40° 261° (W) 12:26:45 437.405
AIST 1 05 May 12:20:59 12:25:01 36° 269° (W) 12:29:01
QB50P1 05 May 12:21:42 12:25:39 36° 262° (W) 12:29:37 145.935-145.965
50 SAT 05 May 12:36:28 12:40:08 89° 283° (WNW) 12:43:49 437.505
BUGSAT 1 05 May 12:39:31 12:43:40 53° 260° (W) 12:47:51 437.445
CUBEBUG 1 05 May 12:44:34 12:49:02 87° 104° (ESE) 12:53:26 437.445
ESTCUBE 1 05 May 12:46:35 12:51:04 62° 285° (WNW) 12:55:32 437.505/2401.250
NANOSAT C BR1 05 May 12:56:24 12:59:00 16° 266° (W) 13:01:36 145.865
PHONESAT 2.4 05 May 12:58:28 13:01:33 49° 15° (NNE) 13:04:37 2401.200-2431.200
DX 1 05 May 13:06:29 13:10:49 60° 285° (WNW) 13:15:06 434.975-435.025
UKube-1 05 May 13:07:24 13:11:44 72° 284° (WNW) 13:16:02 .
ISS 05 May 13:10:37 13:13:41 38° 37° (NE) 13:16:46 145.825
JAS-2 05 May 13:15:45 13:21:41 74° 74° (ENE) 13:28:29 435.910
O/OREOS (USA 219) 05 May 13:19:58 13:21:43 12° 98° (E) 13:23:28 437.305
VELOX 1 05 May 13:20:07 13:24:13 37° 288° (WNW) 13:28:18 145.980
Cosmos 2499 05 May 13:26:30 13:34:04 51° 269° (W) 13:42:11 435.465 / 435.565
GONETS M04 05 May 13:30:41 13:37:43 28° 276° (W) 13:44:43
SPROUT 05 May 13:31:46 13:36:03 72° 284° (WNW) 13:40:17 437.525
Oscar 19 05 May 13:41:07 13:46:17 80° 75° (ENE) 13:51:30 437.125/150
AO-85 05 May 13:43:08 13:47:04 20° 312° (NW) 13:50:59 145.980
AISAT 05 May 13:53:49 13:56:32 16° 294° (WNW) 13:59:13 437.250
TISAT 1 05 May 13:54:43 13:58:51 54° 101° (E) 14:02:57 437.305
PCSat 05 May 13:55:46 13:58:25 14° 103° (ESE) 14:01:04 145.827
Gurwin Techsat 1B 05 May 13:59:45 14:04:49 47° 72° (ENE) 14:09:54 435.225
AO-7 05 May 14:04:12 14:08:51 16° 53° (NE) 14:13:29 29.400- 29.500
CUSAT 1 05 May 14:12:41 14:14:18 12° 81° (E) 14:16:04 437.405
BEESAT 05 May 14:19:51 14:22:59 17° 94° (E) 14:26:06 436.000
PHONESAT 2.4 05 May 14:35:27 14:38:20 34° 210° (SSW) 14:41:14 2401.200-2431.200
ISS 05 May 14:47:46 14:49:55 16° 231° (SW) 14:52:04 145.825
O/OREOS (USA 219) 05 May 14:56:05 15:00:35 53° 292° (WNW) 15:05:06 437.305
JAS-2 05 May 15:04:30 15:07:36 14° 273° (W) 15:10:52 435.910
ITAMSAT 1 05 May 15:06:18 15:11:29 86° 75° (ENE) 15:16:41 435.822/435.867
SO-50 05 May 15:14:16 15:18:26 30° 52° (NE) 15:22:27 436.795
ITUPSAT 1 05 May 15:15:35 15:20:21 70° 102° (ESE) 15:25:07 437.325
DANDE 05 May 15:21:43 15:24:12 25° 89° (E) 15:27:09 436.750
SWISSCUBE 05 May 15:23:20 15:28:07 84° 285° (WNW) 15:32:53 437.505
TISAT 1 05 May 15:32:46 15:33:59 11° 295° (WNW) 15:35:13 437.305
PCSat 05 May 15:35:48 15:41:09 66° 298° (WNW) 15:46:35 145.827
KKS-1 05 May 15:36:19 15:38:10 12° 92° (E) 15:40:00 437.445
Gurwin Techsat 1B 05 May 15:41:21 15:44:58 18° 267° (W) 15:48:35 435.225
AO-7 05 May 15:52:04 16:00:20 82° 72° (ENE) 16:08:40 29.400- 29.500
CUSAT 1 05 May 15:52:30 15:55:43 31° 288° (WNW) 15:59:48 437.405
BEESAT 05 May 15:56:26 16:00:54 41° 288° (WNW) 16:05:21 436.000
HORYU 2 05 May 15:58:12 16:01:01 17° 67° (ENE) 16:03:49 437.375
MOZHAYETS 4 05 May 16:00:50 16:03:40 16° 93° (E) 16:06:29
Cosmos 2491 05 May 16:43:28 16:49:54 22° 68° (ENE) 16:56:15 435.465 / 435.565
SO-50 05 May 16:54:55 16:58:46 26° 249° (WSW) 17:02:30 436.795
ITUPSAT 1 05 May 16:56:09 16:57:33 11° 297° (WNW) 16:58:58 437.325
BEESAT 3 05 May 17:06:07 17:09:09 22° 111° (ESE) 17:12:13 437.485
KKS-1 05 May 17:10:40 17:14:59 50° 286° (WNW) 17:19:16 437.445
STARS 05 May 17:18:38 17:23:03 82° 284° (WNW) 17:27:25 437.465
BEESAT 2 05 May 17:19:56 17:22:38 18° 110° (ESE) 17:25:20 435.950
JUGNU 05 May 17:21:29 17:24:38 15° 172° (S) 17:27:46 437.505
BRITE-PL 05 May 17:28:11 17:31:08 16° 64° (ENE) 17:34:12 437.365/2234.400
NOAA 15 05 May 17:30:10 17:34:39 29° 68° (ENE) 17:39:10 137.62
LilacSat-2 05 May 17:31:44 17:32:53 11° 67° (ENE) 17:34:02 437.200
HORYU 2 05 May 17:33:01 17:37:13 40° 261° (W) 17:41:26 437.375
MOZHAYETS 4 05 May 17:36:41 17:40:58 40° 288° (WNW) 17:45:15
NOAA 18 05 May 17:37:25 17:42:14 32° 68° (ENE) 17:47:03 137.9125
Cubesat XI-IV 05 May 17:43:48 17:48:08 26° 67° (ENE) 17:52:28 437.490
AO-7 05 May 17:48:42 17:53:51 18° 267° (W) 17:59:02 29.400- 29.500
CUBESAT XI-V 05 May 17:53:28 17:57:35 29° 96° (E) 18:01:41 437.345
M-CUBED/EXP-1 PRIME 05 May 17:59:37 18:02:13 15° 61° (ENE) 18:04:47 437.505
AUBIESAT-1 05 May 18:14:59 18:17:59 17° 63° (ENE) 18:20:58 437.475
GOMX 1 05 May 18:22:03 18:26:19 28° 68° (ENE) 18:30:47 467.674
SRMSAT 05 May 18:28:21 18:30:12 11° 167° (SSE) 18:32:02 437.500
CUTE-I 05 May 18:37:04 18:42:24 85° 76° (ENE) 18:47:44 437.470
Cosmos 2491 05 May 18:38:44 18:47:30 72° 267° (W) 18:56:10 435.465 / 435.565
BEESAT 3 05 May 18:43:23 18:46:42 26° 306° (NW) 18:50:04 437.485
YUBILEINY 05 May 18:44:46 18:53:20 64° 92° (E) 19:01:54 435.215
HO-68 05 May 18:48:46 18:52:59 17° 58° (ENE) 18:57:13 435.675
BEESAT 2 05 May 18:56:38 19:00:13 32° 305° (NW) 19:03:50 435.950
LilacSat-2 05 May 19:03:03 19:06:46 44° 261° (W) 19:10:29 437.200
BRITE-PL 05 May 19:04:16 19:08:59 54° 261° (W) 19:14:09 437.365/2234.400
JUGNU 05 May 19:09:19 19:12:52 16° 183° (S) 19:16:26 437.505
NOAA 15 05 May 19:09:45 19:14:19 30° 263° (W) 19:18:56 137.62
AIST 2 05 May 19:17:27 19:20:44 23° 111° (ESE) 19:24:01 435.215
NOAA 18 05 May 19:18:03 19:22:49 30° 263° (W) 19:27:35 137.9125
Cubesat XI-IV 05 May 19:23:11 19:28:00 34° 262° (W) 19:32:50 437.490
CUBESAT XI-V 05 May 19:31:03 19:34:48 24° 291° (WNW) 19:38:33 437.345
M-CUBED/EXP-1 PRIME 05 May 19:31:38 19:36:17 57° 255° (WSW) 19:40:52 437.505
CUTE 1.7 + AOD 2 05 May 19:34:41 19:37:33 18° 69° (ENE) 19:40:24 437.475
DOVE 4 05 May 19:38:29 19:43:36 80° 76° (ENE) 19:48:55 437.250
AUBIESAT-1 05 May 19:47:38 19:52:06 46° 256° (WSW) 19:56:30 437.475
COMPASS 1 05 May 19:53:47 19:56:09 15° 68° (ENE) 19:58:30 437.405
SEEDS 05 May 19:55:31 19:58:46 22° 70° (ENE) 20:02:01 437.485
CINEMA 3 05 May 19:58:27 20:03:07 41° 72° (ENE) 20:07:48 145.822/145.860
GOMX 1 05 May 19:59:45 20:04:13 31° 265° (W) 20:08:56 467.674
RS-15 05 May 20:03:06 20:12:05 29° 103° (ESE) 20:21:23 29.354- 29.394
Cosmos 2504 05 May 20:11:26 20:18:31 57° 92° (E) 20:25:28 435.465 / 435.565
UWE-3 05 May 20:12:17 20:13:52 12° 65° (ENE) 20:15:28 435.000/436.395/437.385
SRMSAT 05 May 20:14:55 20:18:35 17° 177° (S) 20:22:16 437.500
AAUSAT CUBESAT 2 05 May 20:20:14 20:23:33 24° 71° (ENE) 20:26:53 437.432
CUBEBUG 2 05 May 20:24:24 20:28:09 24° 70° (ENE) 20:31:51 437.445
STRAND 1 05 May 20:29:24 20:34:32 80° 284° (WNW) 20:39:38 437.568
HO-68 05 May 20:32:37 20:39:47 85° 255° (WSW) 20:47:00 435.675
ZACube-1 05 May 20:34:44 20:36:57 14° 67° (ENE) 20:39:09 437.345
CANX-2 05 May 20:36:41 20:40:53 69° 259° (W) 20:45:05 2200.000
AO-85 05 May 20:36:44 20:40:34 24° 49° (NE) 20:44:07 145.980
Cosmos 2491 05 May 20:41:47 20:42:37 10° 285° (WNW) 20:43:26 435.465 / 435.565
YUBILEINY 05 May 20:43:54 20:50:41 25° 290° (WNW) 20:57:29 435.215
AIST 2 05 May 20:55:32 20:59:05 27° 307° (NW) 21:02:38 435.215
JUGNU 05 May 20:59:10 21:01:06 12° 193° (SSW) 21:03:02 437.505
PRISM 05 May 21:02:09 21:06:09 43° 100° (E) 21:10:08 437.425
DELFI C3 05 May 21:07:35 21:09:50 15° 68° (ENE) 21:12:04 145.870
Oscar 11 05 May 21:08:16 21:12:12 36° 73° (ENE) 21:16:09 145.826/435.025
CUTE 1.7 + AOD 2 05 May 21:09:22 21:13:08 31° 263° (W) 21:16:54 437.475
DOVE 4 05 May 21:21:40 21:21:50 10° 272° (W) 21:22:02 437.250
FUNcube-1 05 May 21:24:20 21:28:39 46° 74° (ENE) 21:32:53 145.935
COMPASS 1 05 May 21:27:33 21:31:22 37° 262° (W) 21:35:13 437.405
SEEDS 05 May 21:30:56 21:34:21 24° 264° (W) 21:37:45 437.485
CINEMA 3 05 May 21:36:44 21:40:20 20° 267° (W) 21:43:57 145.822/145.860
UWE-3 05 May 21:45:12 21:49:48 62° 259° (W) 21:54:19 435.000/436.395/437.385
AAUSAT CUBESAT 2 05 May 21:55:46 21:58:57 22° 265° (W) 22:02:10 437.432
CUBEBUG 2 05 May 22:00:27 22:04:35 30° 263° (W) 22:08:41 437.445
SRMSAT 05 May 22:03:37 22:07:01 15° 187° (S) 22:10:25 437.500
Cosmos 2504 05 May 22:06:59 22:12:16 21° 289° (WNW) 22:17:31 435.465 / 435.565
ZACube-1 05 May 22:08:24 22:12:48 50° 260° (W) 22:17:08 437.345
RS-15 05 May 22:12:11 22:23:22 70° 303° (WNW) 22:35:17 29.354- 29.394
AO-85 05 May 22:17:00 22:21:04 32° 249° (WSW) 22:24:49 145.980
HO-68 05 May 22:26:01 22:28:20 12° 270° (W) 22:30:39 435.675
UNISAT 6 05 May 22:31:07 22:33:55 17° 94° (E) 22:36:42 437.425
PRISM 05 May 22:39:00 22:41:03 13° 294° (WNW) 22:43:06 437.425
DELFI C3 05 May 22:40:50 22:44:23 33° 262° (W) 22:48:00 145.870
VELOX 1 05 May 22:41:02 22:42:23 11° 64° (ENE) 22:43:44 145.980
HUMSAT D 05 May 22:42:07 22:46:21 86° 259° (W) 22:50:33 437.325/437.525
Oscar 11 05 May 22:45:44 22:48:25 16° 266° (W) 22:51:07 145.826/435.025
TIGRISAT 05 May 22:46:51 22:50:22 24° 96° (E) 22:53:50 435.000
FUNcube-1 05 May 23:02:48 23:05:04 14° 267° (W) 23:07:19 145.935
AISAT 05 May 23:10:59 23:14:41 26° 70° (ENE) 23:18:24 437.250
ANTELSAT 05 May 23:12:06 23:16:18 53° 100° (E) 23:20:26 437.575/2403.000
50 SAT 05 May 23:12:39 23:15:40 25° 72° (ENE) 23:18:41 437.505
AIST 1 05 May 23:13:28 23:13:52 10° 84° (E) 23:14:16
O/OREOS (USA 219) 05 May 23:31:08 23:33:50 15° 59° (ENE) 23:36:31 437.305
CUBEBUG 1 05 May 23:37:25 23:41:37 48° 74° (ENE) 23:45:52 437.445
ESTCUBE 1 05 May 23:42:50 23:47:18 83° 78° (ENE) 23:51:49 437.505/2401.250
DUCHIFAT 1 05 May 23:57:26 00:01:01 27° 97° (E) 00:04:34 145.980
DX 1 05 May 23:58:40 00:03:01 80° 76° (ENE) 00:07:24 434.975-435.025
UKube-1 05 May 23:58:43 00:02:59 64° 74° (ENE) 00:07:16 .
QB50P2 06 May 00:02:28 00:06:24 37° 98° (E) 00:10:17 145.880/145.840
POLYITAN 1 06 May 00:04:40 00:08:36 37° 98° (E) 00:12:30 437.675
POPSAT HIP 1 06 May 00:06:18 00:10:15 38° 98° (E) 00:14:10 437.405
UNISAT 6 06 May 00:06:52 00:10:43 33° 288° (WNW) 00:14:31 437.425
QB50P1 06 May 00:09:07 00:13:08 42° 99° (E) 00:17:07 145.935-145.965
Cosmos 2499 06 May 00:09:26 00:14:31 22° 84° (E) 00:19:37 435.465 / 435.565
VELOX 1 06 May 00:13:55 00:18:18 61° 259° (W) 00:22:42 145.980
SPROUT 06 May 00:22:06 00:26:19 57° 75° (ENE) 00:30:34 437.525
TIGRISAT 06 May 00:23:33 00:26:56 23° 291° (WNW) 00:30:17 435.000
BUGSAT 1 06 May 00:24:46 00:28:17 26° 96° (E) 00:31:43 437.445
PCSat 06 May 00:26:36 00:31:54 52° 60° (ENE) 00:37:10 145.827
GONETS M04 06 May 00:29:37 00:38:23 69° 92° (E) 00:47:08
RS-15 06 May 00:30:04 00:38:34 22° 330° (NNW) 00:47:25 29.354- 29.394
JAS-2 06 May 00:30:16 00:34:25 15° 88° (E) 00:38:29 435.910
NANOSAT C BR1 06 May 00:41:48 00:46:01 79° 284° (WNW) 00:50:12 145.865
TISAT 1 06 May 00:43:43 00:47:19 27° 71° (ENE) 00:50:56 437.305
CUSAT 1 06 May 00:45:46 00:51:16 21° 69° (ENE) 00:56:58 437.405
AIST 1 06 May 00:46:41 00:50:53 52° 279° (W) 00:55:08
50 SAT 06 May 00:47:07 00:49:26 16° 265° (W) 00:51:44 437.505
AISAT 06 May 00:47:28 00:51:04 24° 264° (W) 00:54:42 437.250
ANTELSAT 06 May 00:51:05 00:52:30 11° 295° (WNW) 00:53:56 437.575/2403.000
O/OREOS (USA 219) 06 May 01:09:10 01:13:27 44° 255° (WSW) 01:17:42 437.305
CUBEBUG 1 06 May 01:16:15 01:18:09 13° 268° (W) 01:20:03 437.445
BEESAT 06 May 01:24:11 01:26:54 15° 65° (ENE) 01:29:37 436.000
DUCHIFAT 1 06 May 01:33:23 01:36:32 21° 291° (WNW) 01:39:39 145.980
QB50P2 06 May 01:39:19 01:41:52 16° 293° (WNW) 01:44:25 145.880/145.840
POLYITAN 1 06 May 01:41:34 01:44:04 15° 293° (WNW) 01:46:33 437.675
POPSAT HIP 1 06 May 01:43:13 01:45:41 15° 293° (WNW) 01:48:08 437.405
QB50P1 06 May 01:46:19 01:48:31 14° 294° (WNW) 01:50:43 145.935-145.965
Oscar 19 06 May 01:55:59 02:00:43 35° 98° (E) 02:05:25 437.125/150
DANDE 06 May 01:58:52 02:05:29 37° 76° (ENE) 02:12:58 436.750
Cosmos 2499 06 May 02:00:09 02:07:02 53° 281° (W) 02:13:57 435.465 / 435.565
BUGSAT 1 06 May 02:00:20 02:03:29 21° 291° (WNW) 02:06:35 437.445
SPROUT 06 May 02:02:14 02:02:35 10° 269° (W) 02:02:55 437.525
PCSat 06 May 02:11:16 02:14:49 18° 255° (WSW) 02:18:22 145.827
JAS-2 06 May 02:12:18 02:20:15 88° 106° (ESE) 02:27:54 435.910
ITUPSAT 1 06 May 02:19:19 02:23:59 58° 74° (ENE) 02:28:39 437.325
Gurwin Techsat 1B 06 May 02:19:29 02:23:42 24° 95° (E) 02:27:53 435.225
TISAT 1 06 May 02:19:44 02:22:56 21° 265° (W) 02:26:10 437.305
CUSAT 1 06 May 02:26:15 02:33:58 79° 263° (W) 02:42:00 437.405
SWISSCUBE 06 May 02:26:41 02:31:25 80° 75° (ENE) 02:36:11 437.505
GONETS M04 06 May 02:29:18 02:35:52 23° 291° (WNW) 02:42:30
RS-15 06 May 02:51:52 02:57:56 15° 8° (N) 03:04:04 29.354- 29.394
BEESAT 06 May 02:59:38 03:04:14 50° 260° (W) 03:08:52 436.000
MOZHAYETS 4 06 May 03:01:32 03:03:03 12° 65° (ENE) 03:04:33
BEESAT 3 06 May 03:02:36 03:06:33 68° 60° (ENE) 03:10:26 437.485
BEESAT 2 06 May 03:16:56 03:20:52 55° 59° (ENE) 03:24:45 435.950
ITAMSAT 1 06 May 03:22:19 03:27:08 38° 99° (E) 03:31:57 435.822/435.867
Oscar 19 06 May 03:35:41 03:39:49 24° 293° (WNW) 03:43:56 437.125/150
DANDE 06 May 03:41:30 03:48:17 43° 268° (W) 03:55:59 436.750
AO-7 06 May 03:57:35 04:04:51 32° 98° (E) 04:12:06 29.400- 29.500
Gurwin Techsat 1B 06 May 03:58:50 04:03:41 37° 290° (WNW) 04:08:31 435.225
JAS-2 06 May 03:59:12 04:04:11 19° 300° (WNW) 04:09:09 435.910
ITUPSAT 1 06 May 04:00:16 04:02:08 12° 268° (W) 04:04:00 437.325
KKS-1 06 May 04:05:16 04:09:44 81° 256° (WSW) 04:14:16 437.445
CUSAT 1 06 May 04:11:35 04:15:04 14° 278° (W) 04:18:38 437.405
STARS 06 May 04:12:02 04:16:23 59° 75° (ENE) 04:20:46 437.465
MOZHAYETS 4 06 May 04:35:09 04:39:39 61° 259° (W) 04:44:11
CUBESAT XI-V 06 May 04:54:31 04:57:55 21° 68° (ENE) 05:01:21 437.345
YUBILEINY 06 May 04:59:21 05:06:22 26° 71° (ENE) 05:13:22 435.215
ITAMSAT 1 06 May 05:02:22 05:06:21 23° 293° (WNW) 05:10:19 435.822/435.867
RS-15 06 May 05:05:22 05:16:07 33° 42° (NE) 05:26:50 29.354- 29.394
AIST 2 06 May 05:18:47 05:22:56 79° 61° (ENE) 05:27:03 435.215
SO-50 06 May 05:26:14 05:29:43 20° 109° (ESE) 05:33:15 436.795
HORYU 2 06 May 05:26:37 05:30:51 45° 100° (E) 05:35:05 437.375
Cosmos 2491 06 May 05:41:11 05:48:13 28° 83° (E) 05:55:15 435.465 / 435.565
ISS 06 May 05:47:57 05:51:09 59° 136° (SE) 05:54:23 145.825
NOAA 15 06 May 05:49:36 05:52:08 13° 92° (E) 05:54:39 137.62
AO-7 06 May 05:49:49 05:57:45 51° 294° (WNW) 06:05:42 29.400- 29.500
STARS 06 May 05:52:26 05:53:04 10° 268° (W) 05:53:43 437.465
NOAA 18 06 May 06:03:19 06:06:39 16° 93° (E) 06:09:58 137.9125
Cubesat XI-IV 06 May 06:05:29 06:07:33 12° 91° (E) 06:09:37 437.490
STRAND 1 06 May 06:07:14 06:08:53 12° 62° (ENE) 06:10:32 437.568
Cosmos 2504 06 May 06:07:44 06:12:27 17° 69° (ENE) 06:17:17 435.465 / 435.565
GOMX 1 06 May 06:30:08 06:30:47 10° 88° (E) 06:31:25 467.674
CUBESAT XI-V 06 May 06:30:57 06:35:04 32° 263° (W) 06:39:14 437.345
LilacSat-2 06 May 06:39:50 06:42:50 22° 96° (E) 06:45:47 437.200
YUBILEINY 06 May 06:55:08 07:03:38 60° 269° (W) 07:12:07 435.215
CUTE-I 06 May 06:57:16 07:02:19 43° 99° (E) 07:07:21 437.470
HORYU 2 06 May 07:04:37 07:07:00 14° 294° (WNW) 07:09:21 437.375
SO-50 06 May 07:05:12 07:09:53 44° 304° (NW) 07:14:35 436.795
PHONESAT 2.4 06 May 07:08:41 07:10:06 12° 143° (SE) 07:11:31 2401.200-2431.200
BRITE-PL 06 May 07:11:41 07:17:22 67° 100° (E) 07:22:48 437.365/2234.400
RS-15 06 May 07:17:34 07:29:53 79° 245° (WSW) 07:42:06 29.354- 29.394
ISS 06 May 07:25:45 07:27:52 16° 332° (NNW) 07:30:00 145.825
NOAA 15 06 May 07:27:01 07:32:17 64° 286° (WNW) 07:37:31 137.62
AUBIESAT-1 06 May 07:31:46 07:33:25 13° 97° (E) 07:35:02 437.475
Cosmos 2491 06 May 07:35:48 07:44:25 57° 281° (W) 07:53:07 435.465 / 435.565
DOVE 4 06 May 07:41:31 07:45:46 28° 95° (E) 07:49:47 437.250
STRAND 1 06 May 07:42:17 07:47:22 76° 258° (WSW) 07:52:28 437.568
NOAA 18 06 May 07:42:17 07:47:36 55° 288° (WNW) 07:52:54 137.9125
Cubesat XI-IV 06 May 07:42:45 07:48:03 69° 286° (WNW) 07:53:20 437.490
PRISM 06 May 07:49:25 07:52:32 21° 69° (ENE) 07:55:39 437.425
Cosmos 2504 06 May 07:58:44 08:06:32 83° 265° (W) 08:14:54 435.465 / 435.565
CINEMA 3 06 May 07:59:32 08:00:16 10° 90° (E) 08:01:01 145.822/145.860
GOMX 1 06 May 08:04:06 08:09:29 78° 283° (WNW) 08:14:31 467.674
HO-68 06 May 08:04:51 08:10:05 21° 94° (E) 08:15:17 435.675
LilacSat-2 06 May 08:14:11 08:16:59 20° 290° (WNW) 08:19:46 437.200
CANX-2 06 May 08:25:05 08:28:33 24° 96° (E) 08:32:01 2200.000
CUTE-I 06 May 08:38:07 08:42:01 21° 294° (WNW) 08:45:57 437.470
PHONESAT 2.4 06 May 08:43:26 08:46:34 77° 157° (SSE) 08:49:42 2401.200-2431.200
M-CUBED/EXP-1 PRIME 06 May 08:49:26 08:52:58 39° 292° (WNW) 08:56:14 437.505
BRITE-PL 06 May 08:51:52 08:55:08 16° 296° (WNW) 08:58:22 437.365/2234.400
CUTE 1.7 + AOD 2 06 May 08:56:36 09:00:44 51° 100° (E) 09:04:51 437.475
AUBIESAT-1 06 May 09:04:47 09:08:05 31° 293° (WNW) 09:11:11 437.475
COMPASS 1 06 May 09:13:00 09:16:56 39° 98° (E) 09:20:51 437.405
SEEDS 06 May 09:16:43 09:20:53 65° 101° (E) 09:25:03 437.485
DOVE 4 06 May 09:19:10 09:23:20 27° 291° (WNW) 09:27:18 437.250
PRISM 06 May 09:24:20 09:27:41 25° 263° (W) 09:31:05 437.425
UNISAT 6 06 May 09:28:13 09:30:12 13° 66° (ENE) 09:32:10 437.425
CINEMA 3 06 May 09:33:24 09:37:50 56° 286° (WNW) 09:42:03 145.822/145.860
RS-15 06 May 09:33:50 09:40:20 16° 263° (W) 09:46:50 29.354- 29.394
UWE-3 06 May 09:38:21 09:42:04 30° 97° (E) 09:45:43 435.000/436.395/437.385
AAUSAT CUBESAT 2 06 May 09:39:45 09:43:54 68° 101° (E) 09:48:02 437.432
TIGRISAT 06 May 09:43:09 09:46:12 18° 68° (ENE) 09:49:14 435.000
HO-68 06 May 09:51:09 09:58:10 62° 290° (WNW) 10:05:11 435.675
CUBEBUG 2 06 May 09:53:53 09:58:08 73° 102° (ESE) 10:02:15 437.445
Cosmos 2504 06 May 09:56:04 09:58:47 12° 281° (W) 10:01:33 435.465 / 435.565
ZACube-1 06 May 09:59:55 10:03:46 35° 98° (E) 10:07:34 437.345
CANX-2 06 May 10:00:57 10:04:17 23° 290° (WNW) 10:07:38 2200.000
ANTELSAT 06 May 10:07:49 10:12:00 34° 72° (ENE) 10:16:07 437.575/2403.000
PHONESAT 2.4 06 May 10:20:39 10:23:35 35° 353° (N) 10:26:31 2401.200-2431.200
DELFI C3 06 May 10:21:09 10:24:48 34° 98° (E) 10:28:28 145.870
HUMSAT D 06 May 10:29:31 10:32:18 18° 95° (E) 10:35:05 437.325/437.525
Oscar 11 06 May 10:33:51 10:38:10 72° 283° (WNW) 10:42:26 145.826/435.025
CUTE 1.7 + AOD 2 06 May 10:34:34 10:36:06 12° 294° (WNW) 10:37:38 437.475
GONETS M04 06 May 10:44:25 10:51:45 29° 72° (ENE) 10:58:59
DUCHIFAT 1 06 May 10:47:36 10:50:00 15° 67° (ENE) 10:52:25 145.980
AO-85 06 May 10:48:10 10:51:48 18° 108° (ESE) 10:55:26 145.980
COMPASS 1 06 May 10:49:51 10:52:07 15° 293° (WNW) 10:54:25 437.405
FUNcube-1 06 May 10:51:25 10:55:29 53° 285° (WNW) 10:59:30 145.935
QB50P2 06 May 10:52:50 10:55:58 20° 69° (ENE) 10:59:07 145.880/145.840
POLYITAN 1 06 May 10:55:00 10:58:11 21° 69° (ENE) 11:01:22 437.675
POPSAT HIP 1 06 May 10:56:29 10:59:40 21° 69° (ENE) 11:02:52 437.405
AIST 1 06 May 10:56:59 11:00:44 27° 77° (ENE) 11:04:28
QB50P1 06 May 10:59:08 11:02:29 22° 69° (ENE) 11:05:49 145.935-145.965
UNISAT 6 06 May 11:01:50 11:06:25 57° 260° (W) 11:10:55 437.425
BUGSAT 1 06 May 11:12:56 11:15:04 14° 66° (ENE) 11:17:12 437.445
UWE-3 06 May 11:15:26 11:18:18 18° 292° (WNW) 11:21:07 435.000/436.395/437.385
TIGRISAT 06 May 11:18:13 11:22:34 39° 261° (W) 11:26:52 435.000
CUBEBUG 1 06 May 11:31:20 11:32:41 11° 92° (E) 11:34:01 437.445
